Погода в Прокшине

Россия / Вологодская область     60°46′56″N   37°47′50″E
темп.,
°C
ветер,
м/с
пор.,
м/с
влажн.,
%
обл.,
%
осадки,
мм/ч
давл.,
гПа
погр.,
м
9 мая, вс
вс900:00+5ююз1498100 1.9 1006206
03:00+3сз4897100 4.6 1006453
06:00+2сз41094100 1.3 1007623
09:00+4сз51381100 1.3 1008848
12:00+7сз6105156 0.0 10111306
15:00+8сз694313 0.0 10131840
18:00+8сз410470 0.0 10151913
21:00+3зсз23694 0.0 101843
10 мая, пн
пн1000:00+1з26750 0.0 1020106
03:000зсз248225 0.0 102371
06:00+3зюз13670 0.0 102591
09:00+9ююз34445 0.0 1025641
12:00+12ююз46425 0.0 10251507
15:00+13ююз574051 0.0 10251882
18:00+9ююз2863100 0.0 1025379
21:00+9ююз41262100 0.0 1026474
11 мая, вт
вт1100:00+7ююз4137595 0.0 1026365
03:00+6ююз31280100 0.0 1027284
06:00+8ююз41282100 0.0 1027328
09:00+14юз476743 0.0 1027486
12:00+18юз465710 0.0 1027985
15:00+20юз464783 0.0 10271356
18:00+20ююз35560 0.0 1027531
21:00+12ю38820 0.0 1028127
12 мая, ср
ср1200:00+10ююз28883 0.0 1029138
03:00+9ююз23890 0.0 103057
06:00+11ююз14772 0.0 1030100
09:00+17ю23550 0.0 1029417
12:00+20ю24465 0.0 10281023
15:00+22ю24425 0.0 10271460
18:00+21ю24522 0.0 1026653
21:00+15ююв22800 0.0 102611
13 мая, чт
чт1300:00+12юв228591 0.0 102625
03:00+11вюв23830 0.0 102655
06:00+13вюв268115 0.0 1025148
09:00+19ююв36585 0.0 1024657
12:00+21ююв474894 0.0 10231512
15:00+21ююв375376 0.0 10211299
18:00+20юв410585 0.0 10201071
21:00+14ююв2109278 0.6 1020482